QPF
0.02 0.02 0.01 0.00 0.01 0.01 0.00 0.00 0.00 0.00 0.00 0.00 0.00 0.00 0.00 0.00 0.00 0.00 0.00 0.00 0.00 0.00 0.00 0.00 0.00 0.01 0.00 0.00 0.02 0.03 0.03 0.04 0.04 0.04 0.05 0.07 0.10 0.10 0.09 0.07 0.06 0.05 0.03 0.02
0.02 0.02 0.01 0.00 0.00 0.00 0.00 0.00 0.00 0.00 0.00 0.00 0.00 0.00 0.00 0.00 0.00 0.00 0.00 0.00 0.00 0.00 0.00 0.00 0.00 0.00 0.01 0.00 0.00 0.02 0.02 0.02 0.03 0.03 0.05 0.07 0.06 0.08 0.09 0.09 0.08 0.07 0.04 0.03
0.01 0.01 0.00 0.00 0.00 0.00 0.00 0.01 0.00 0.00 0.00 0.00 0.00 0.00 0.00 0.00 0.00 0.00 0.00 0.00 0.00 0.00 0.00 0.00 0.00 0.00 0.01 0.01 0.01 0.00 0.01 0.02 0.03 0.03 0.03 0.06 0.08 0.07 0.06 0.08 0.09 0.10 0.08 0.05
0.02 0.01 0.00 0.00 0.00 0.00 0.00 0.00 0.01 0.01 0.01 0.01 0.00 0.00 0.00 0.00 0.00 0.00 0.00 0.00 0.00 0.00 0.00 0.00 0.00 0.00 0.00 0.01 0.01 0.01 0.01 0.02 0.03 0.03 0.03 0.03 0.05 0.07 0.06 0.05 0.06 0.07 0.08 0.09
0.02 0.01 0.01 0.01 0.00 0.00 0.00 0.00 0.00 0.01 0.01 0.01 0.00 0.00 0.00 0.00 0.00 0.00 0.00 0.00 0.00 0.00 0.00 0.00 0.00 0.00 0.00 0.00 0.00 0.01 0.01 0.01 0.02 0.02 0.03 0.03 0.03 0.05 0.07 0.06 0.04 0.05 0.06 0.07
0.02 0.01 0.01 0.01 0.00 0.00 0.01 0.01 0.01 0.02 0.02 0.02 0.01 0.00 0.00 0.00 0.01 0.01 0.00 0.00 0.00 0.00 0.00 0.00 0.00 0.00 0.00 0.00 0.00 0.00 0.01 0.01 0.02 0.02 0.02 0.02 0.02 0.03 0.04 0.06 0.06 0.05 0.04 0.05
0.01 0.01 0.01 0.01 0.01 0.01 0.01 0.02 0.02 0.03 0.03 0.02 0.00 0.01 0.01 0.01 0.01 0.01 0.00 0.00 0.00 0.00 0.00 0.00 0.00 0.00 0.00 0.00 0.00 0.00 0.00 0.01 0.01 0.02 0.02 0.03 0.02 0.02 0.02 0.04 0.05 0.05 0.05 0.04
0.01 0.01 0.01 0.01 0.01 0.01 0.01 0.01 0.02 0.02 0.01 0.01 0.00 0.01 0.01 0.00 0.00 0.00 0.00 0.00 0.00 0.00 0.00 0.00 0.00 0.00 0.00 0.00 0.00 0.00 0.00 0.00 0.01 0.01 0.02 0.03 0.03 0.03 0.02 0.02 0.04 0.05 0.05 0.04
0.01 0.01 0.01 0.01 0.01 0.01 0.01 0.01 0.01 0.02 0.02 0.01 0.00 0.00 0.00 0.00 0.00 0.00 0.00 0.00 0.00 0.00 0.00 0.00 0.00 0.00 0.00 0.00 0.00 0.00 0.00 0.00 0.01 0.01 0.01 0.02 0.03 0.03 0.03 0.03 0.03 0.03 0.04 0.05
0.01 0.01 0.00 0.00 0.01 0.01 0.01 0.01 0.01 0.03 0.03 0.01 0.00 0.00 0.00 0.00 0.00 0.00 0.00 0.00 0.00 0.00 0.00 0.00 0.00 0.00 0.00 0.00 0.00 0.00 0.00 0.01 0.01 0.01 0.01 0.02 0.02 0.03 0.04 0.04 0.04 0.03 0.03 0.04
0.01 0.01 0.01 0.01 0.01 0.01 0.01 0.02 0.01 0.02 0.02 0.01 0.01 0.01 0.00 0.00 0.00 0.00 0.00 0.00 0.00 0.00 0.00 0.00 0.00 0.00 0.00 0.00 0.00 0.01 0.01 0.01 0.01 0.01 0.01 0.01 0.02 0.03 0.04 0.05 0.05 0.04 0.04 0.04
0.02 0.02 0.01 0.01 0.01 0.01 0.01 0.02 0.02 0.02 0.01 0.01 0.01 0.01 0.00 0.00 0.00 0.00 0.00 0.00 0.00 0.00 0.00 0.00 0.00 0.00 0.01 0.01 0.01 0.01 0.01 0.01 0.01 0.01 0.01 0.01 0.01 0.02 0.04 0.04 0.05 0.05 0.05 0.05
0.02 0.03 0.03 0.02 0.01 0.01 0.01 0.01 0.01 0.02 0.02 0.01 0.01 0.01 0.00 0.00 0.00 0.00 0.00 0.00 0.00 0.00 0.00 0.00 0.01 0.01 0.01 0.01 0.01 0.01 0.01 0.01 0.02 0.02 0.01 0.01 0.02 0.02 0.02 0.02 0.03 0.04 0.04 0.04
0.03 0.04 0.02 0.01 0.01 0.01 0.01 0.00 0.00 0.01 0.02 0.01 0.01 0.01 0.00 0.00 0.00 0.00 0.01 0.01 0.01 0.01 0.00 0.01 0.01 0.01 0.01 0.01 0.01 0.01 0.01 0.01 0.01 0.01 0.01 0.01 0.02 0.02 0.02 0.02 0.02 0.02 0.03 0.03
0.04 0.05 0.02 0.00 0.00 0.00 0.00 0.00 0.00 0.00 0.01 0.01 0.00 0.00 0.00 0.00 0.00 0.00 0.01 0.01 0.01 0.01 0.00 0.00 0.01 0.01 0.01 0.01 0.01 0.01 0.01 0.01 0.01 0.01 0.01 0.01 0.01 0.02 0.02 0.03 0.03 0.03 0.03 0.03
0.02 0.03 0.02 0.01 0.00 0.00 0.00 0.00 0.00 0.00 0.00 0.00 0.00 0.00 0.00 0.00 0.00 0.00 0.00 0.00 0.00 0.00 0.00 0.00 0.01 0.01 0.01 0.01 0.01 0.01 0.01 0.01 0.01 0.01 0.01 0.01 0.01 0.01 0.01 0.02 0.03 0.03 0.03 0.03
0.02 0.03 0.03 0.02 0.00 0.01 0.01 0.00 0.00 0.00 0.00 0.00 0.00 0.00 0.00 0.00 0.00 0.00 0.01 0.01 0.00 0.01 0.01 0.01 0.01 0.01 0.02 0.02 0.02 0.02 0.01 0.01 0.01 0.01 0.01 0.01 0.01 0.01 0.01 0.01 0.02 0.03 0.03 0.03
0.02 0.03 0.05 0.04 0.02 0.03 0.01 0.00 0.00 0.00 0.00 0.00 0.00 0.00 0.00 0.00 0.00 0.01 0.01 0.01 0.01 0.01 0.01 0.01 0.01 0.01 0.02 0.02 0.02 0.02 0.02 0.02 0.01 0.01 0.01 0.01 0.01 0.01 0.01 0.01 0.01 0.02 0.02 0.03
0.01 0.02 0.05 0.06 0.04 0.02 0.00 0.00 0.00 0.00 0.01 0.01 0.00 0.00 0.00 0.00 0.01 0.01 0.00 0.01 0.01 0.01 0.01 0.01 0.01 0.02 0.02 0.02 0.02 0.02 0.02 0.02 0.02 0.01 0.01 0.01 0.01 0.01 0.01 0.01 0.01 0.01 0.02 0.02
0.01 0.02 0.05 0.05 0.04 0.02 0.00 0.00 0.00 0.00 0.01 0.01 0.00 0.00 0.00 0.00 0.01 0.00 0.01 0.01 0.01 0.01 0.01 0.01 0.02 0.02 0.02 0.03 0.03 0.03 0.03 0.03 0.02 0.02 0.02 0.01 0.01 0.01 0.01 0.01 0.01 0.02 0.02 0.02
0.02 0.04 0.05 0.04 0.04 0.02 0.01 0.00 0.00 0.01 0.01 0.00 0.00 0.00 0.00 0.00 0.01 0.00 0.00 0.01 0.01 0.01 0.01 0.01 0.01 0.01 0.02 0.02 0.03 0.03 0.03 0.03 0.03 0.03 0.03 0.03 0.02 0.02 0.01 0.01 0.01 0.01 0.02 0.02
0.01 0.02 0.03 0.03 0.04 0.02 0.01 0.00 0.01 0.02 0.01 0.00 0.00 0.00 0.00 0.00 0.00 0.00 0.00 0.00 0.01 0.01 0.01 0.01 0.01 0.01 0.01 0.02 0.02 0.02 0.03 0.03 0.03 0.03 0.03 0.03 0.02 0.02 0.01 0.01 0.01 0.01 0.01 0.02
0.00 0.01 0.01 0.02 0.02 0.01 0.01 0.01 0.02 0.02 0.01 0.01 0.01 0.01 0.01 0.01 0.01 0.01 0.01 0.01 0.01 0.01 0.01 0.01 0.01 0.01 0.01 0.01 0.02 0.02 0.03 0.03 0.03 0.03 0.03 0.03 0.02 0.02 0.01 0.01 0.01 0.01 0.01 0.01
0.01 0.01 0.01 0.02 0.01 0.01 0.01 0.01 0.01 0.01 0.01 0.01 0.01 0.01 0.01 0.01 0.01 0.01 0.01 0.01 0.01 0.01 0.01 0.01 0.01 0.01 0.01 0.01 0.02 0.02 0.02 0.03 0.03 0.03 0.02 0.02 0.02 0.02 0.01 0.01 0.01 0.01 0.01 0.01
0.01 0.01 0.01 0.01 0.01 0.01 0.01 0.01 0.01 0.01 0.01 0.01 0.00 0.00 0.00 0.00 0.01 0.00 0.00 0.00 0.01 0.01 0.01 0.01 0.01 0.01 0.01 0.01 0.01 0.02 0.02 0.03 0.03 0.03 0.02 0.02 0.02 0.02 0.01 0.01 0.01 0.01 0.01 0.01
0.01 0.01 0.01 0.02 0.01 0.01 0.01 0.01 0.01 0.01 0.00 0.00 0.00 0.00 0.00 0.00 0.01 0.01 0.01 0.01 0.01 0.01 0.01 0.01 0.01 0.01 0.01 0.01 0.01 0.01 0.02 0.02 0.03 0.03 0.02 0.02 0.01 0.01 0.01 0.01 0.01 0.01 0.01 0.01
MSLP
1020.39 1020.51 1020.62 1020.72 1020.82 1020.90 1020.97 1021.02 1021.06 1021.07 1021.05 1021.00 1020.93 1020.85 1020.75 1020.64 1020.52 1020.38 1020.22 1020.00 1019.74 1019.41 1019.03 1018.62 1018.21 1017.85 1017.57 1017.42 1017.42 1017.59 1017.92 1018.38 1018.92 1019.51 1020.08 1020.61 1021.08 1021.47 1021.79 1022.07 1022.34 1022.63 1022.95 1023.33
1020.81 1020.90 1020.99 1021.08 1021.19 1021.30 1021.42 1021.53 1021.62 1021.67 1021.67 1021.63 1021.52 1021.39 1021.23 1021.07 1020.91 1020.77 1020.63 1020.47 1020.28 1020.04 1019.73 1019.36 1018.95 1018.55 1018.19 1017.92 1017.79 1017.82 1018.02 1018.37 1018.84 1019.36 1019.90 1020.41 1020.85 1021.21 1021.49 1021.72 1021.93 1022.15 1022.42 1022.76
1021.28 1021.34 1021.42 1021.51 1021.63 1021.77 1021.94 1022.11 1022.24 1022.32 1022.33 1022.25 1022.09 1021.87 1021.63 1021.39 1021.19 1021.04 1020.93 1020.85 1020.76 1020.64 1020.45 1020.18 1019.83 1019.43 1019.03 1018.69 1018.44 1018.33 1018.39 1018.61 1018.96 1019.39 1019.85 1020.30 1020.68 1020.99 1021.22 1021.39 1021.54 1021.70 1021.91 1022.18
1021.83 1021.87 1021.93 1022.02 1022.15 1022.33 1022.55 1022.76 1022.94 1023.03 1023.03 1022.90 1022.66 1022.34 1021.99 1021.66 1021.39 1021.21 1021.13 1021.12 1021.14 1021.16 1021.11 1020.97 1020.73 1020.40 1020.01 1019.63 1019.31 1019.09 1019.02 1019.10 1019.31 1019.61 1019.96 1020.32 1020.62 1020.86 1021.03 1021.14 1021.23 1021.32 1021.46 1021.66
1022.47 1022.48 1022.52 1022.60 1022.76 1022.97 1023.23 1023.49 1023.69 1023.80 1023.77 1023.59 1023.27 1022.85 1022.38 1021.94 1021.59 1021.36 1021.27 1021.30 1021.42 1021.55 1021.65 1021.66 1021.55 1021.33 1021.01 1020.65 1020.29 1020.01 1019.83 1019.79 1019.86 1020.03 1020.26 1020.50 1020.71 1020.87 1020.96 1021.01 1021.04 1021.06 1021.13 1021.25
1023.19 1023.16 1023.17 1023.25 1023.41 1023.65 1023.94 1024.24 1024.48 1024.60 1024.56 1024.34 1023.95 1023.43 1022.86 1022.31 1021.85 1021.55 1021.42 1021.46 1021.62 1021.84 1022.05 1022.20 1022.23 1022.13 1021.91 1021.61 1021.29 1020.99 1020.75 1020.61 1020.58 1020.62 1020.73 1020.85 1020.96 1021.04 1021.07 1021.06 1021.02 1020.99 1020.98 1021.02
1023.95 1023.88 1023.85 1023.91 1024.07 1024.33 1024.66 1024.99 1025.26 1025.41 1025.37 1025.13 1024.70 1024.12 1023.46 1022.81 1022.26 1021.86 1021.66 1021.65 1021.80 1022.05 1022.33 1022.57 1022.72 1022.74 1022.65 1022.45 1022.20 1021.93 1021.69 1021.51 1021.40 1021.35 1021.35 1021.38 1021.40 1021.40 1021.37 1021.30 1021.22 1021.13 1021.06 1021.02
1024.70 1024.58 1024.52 1024.56 1024.72 1024.99 1025.34 1025.70 1026.01 1026.18 1026.17 1025.94 1025.50 1024.89 1024.19 1023.47 1022.83 1022.34 1022.04 1021.94 1022.03 1022.24 1022.53 1022.81 1023.04 1023.17 1023.19 1023.11 1022.96 1022.77 1022.57 1022.40 1022.26 1022.17 1022.10 1022.06 1022.01 1021.95 1021.87 1021.76 1021.64 1021.51 1021.38 1021.26
1025.42 1025.27 1025.19 1025.21 1025.36 1025.63 1025.99 1026.37 1026.70 1026.90 1026.92 1026.73 1026.32 1025.73 1025.02 1024.28 1023.58 1023.00 1022.60 1022.39 1022.37 1022.50 1022.73 1023.00 1023.25 1023.45 1023.57 1023.61 1023.57 1023.49 1023.37 1023.24 1023.13 1023.02 1022.93 1022.84 1022.75 1022.65 1022.54 1022.41 1022.26 1022.09 1021.91 1021.72
1026.11 1025.96 1025.87 1025.89 1026.04 1026.30 1026.64 1027.02 1027.35 1027.58 1027.63 1027.48 1027.13 1026.59 1025.92 1025.19 1024.48 1023.85 1023.36 1023.04 1022.88 1022.89 1023.02 1023.22 1023.45 1023.67 1023.85 1023.99 1024.06 1024.09 1024.07 1024.02 1023.96 1023.87 1023.78 1023.68 1023.58 1023.46 1023.32 1023.18 1023.01 1022.83 1022.61 1022.36
1026.83 1026.71 1026.65 1026.68 1026.82 1027.07 1027.38 1027.71 1028.02 1028.23 1028.29 1028.19 1027.89 1027.43 1026.84 1026.17 1025.48 1024.84 1024.29 1023.88 1023.60 1023.47 1023.47 1023.57 1023.74 1023.94 1024.14 1024.33 1024.50 1024.62 1024.70 1024.73 1024.73 1024.69 1024.62 1024.52 1024.41 1024.29 1024.15 1024.00 1023.82 1023.62 1023.38 1023.09
1027.65 1027.60 1027.61 1027.67 1027.81 1028.01 1028.26 1028.52 1028.75 1028.90 1028.94 1028.84 1028.60 1028.22 1027.72 1027.14 1026.53 1025.92 1025.36 1024.89 1024.52 1024.28 1024.15 1024.13 1024.20 1024.35 1024.54 1024.75 1024.96 1025.16 1025.31 1025.41 1025.46 1025.45 1025.40 1025.32 1025.21 1025.08 1024.93 1024.78 1024.60 1024.39 1024.13 1023.81
1028.65 1028.73 1028.81 1028.92 1029.05 1029.20 1029.35 1029.48 1029.58 1029.62 1029.59 1029.47 1029.25 1028.94 1028.54 1028.08 1027.57 1027.04 1026.52 1026.04 1025.62 1025.29 1025.05 1024.93 1024.90 1024.97 1025.12 1025.32 1025.54 1025.76 1025.95 1026.08 1026.16 1026.17 1026.13 1026.04 1025.92 1025.78 1025.63 1025.46 1025.28 1025.07 1024.81 1024.48
1029.92 1030.12 1030.30 1030.45 1030.55 1030.61 1030.63 1030.60 1030.52 1030.41 1030.25 1030.07 1029.84 1029.58 1029.28 1028.93 1028.55 1028.13 1027.70 1027.26 1026.84 1026.47 1026.17 1025.96 1025.85 1025.85 1025.93 1026.08 1026.28 1026.48 1026.66 1026.79 1026.86 1026.86 1026.80 1026.69 1026.55 1026.38 1026.21 1026.04 1025.85 1025.64 1025.38 1025.07
1031.44 1031.77 1032.03 1032.19 1032.24 1032.19 1032.04 1031.81 1031.53 1031.22 1030.92 1030.63 1030.37 1030.13 1029.91 1029.68 1029.44 1029.16 1028.85 1028.50 1028.13 1027.77 1027.44 1027.19 1027.01 1026.94 1026.95 1027.04 1027.18 1027.34 1027.48 1027.57 1027.60 1027.55 1027.45 1027.29 1027.10 1026.91 1026.71 1026.52 1026.33 1026.12 1025.88 1025.59
1033.17 1033.58 1033.87 1034.01 1033.99 1033.80 1033.46 1033.02 1032.51 1032.00 1031.53 1031.13 1030.81 1030.59 1030.43 1030.32 1030.21 1030.08 1029.90 1029.67 1029.39 1029.09 1028.78 1028.52 1028.31 1028.18 1028.14 1028.17 1028.24 1028.33 1028.40 1028.42 1028.38 1028.27 1028.10 1027.88 1027.64 1027.40 1027.17 1026.96 1026.76 1026.56 1026.35 1026.09
1034.98 1035.40 1035.67 1035.74 1035.60 1035.24 1034.71 1034.06 1033.35 1032.65 1032.03 1031.52 1031.16 1030.94 1030.84 1030.83 1030.85 1030.86 1030.83 1030.72 1030.56 1030.33 1030.09 1029.84 1029.64 1029.49 1029.41 1029.39 1029.39 1029.41 1029.41 1029.35 1029.23 1029.04 1028.80 1028.51 1028.21 1027.92 1027.66 1027.43 1027.22 1027.03 1026.84 1026.61
1036.66 1037.04 1037.21 1037.16 1036.86 1036.34 1035.63 1034.80 1033.92 1033.07 1032.33 1031.76 1031.36 1031.16 1031.12 1031.20 1031.33 1031.47 1031.57 1031.60 1031.55 1031.43 1031.26 1031.07 1030.90 1030.76 1030.67 1030.61 1030.57 1030.53 1030.46 1030.34 1030.14 1029.88 1029.57 1029.22 1028.87 1028.53 1028.23 1027.98 1027.77 1027.58 1027.41 1027.21
1038.04 1038.28 1038.30 1038.09 1037.63 1036.94 1036.08 1035.12 1034.13 1033.20 1032.41 1031.81 1031.43 1031.26 1031.28 1031.44 1031.67 1031.92 1032.13 1032.27 1032.33 1032.31 1032.23 1032.12 1032.00 1031.90 1031.82 1031.76 1031.71 1031.63 1031.52 1031.34 1031.09 1030.78 1030.41 1030.02 1029.62 1029.25 1028.92 1028.65 1028.43 1028.24 1028.07 1027.90
1038.93 1038.98 1038.82 1038.43 1037.80 1036.99 1036.02 1034.99 1033.96 1033.03 1032.26 1031.69 1031.36 1031.25 1031.33 1031.56 1031.87 1032.20 1032.50 1032.74 1032.89 1032.96 1032.98 1032.95 1032.90 1032.86 1032.82 1032.78 1032.74 1032.66 1032.53 1032.33 1032.06 1031.71 1031.32 1030.90 1030.47 1030.08 1029.73 1029.44 1029.20 1029.00 1028.83 1028.64
1039.23 1039.08 1038.72 1038.15 1037.40 1036.49 1035.48 1034.45 1033.46 1032.59 1031.90 1031.42 1031.17 1031.14 1031.29 1031.59 1031.95 1032.34 1032.71 1033.01 1033.24 1033.40 1033.50 1033.55 1033.59 1033.62 1033.64 1033.65 1033.64 1033.59 1033.47 1033.28 1033.00 1032.66 1032.26 1031.83 1031.40 1030.99 1030.62 1030.31 1030.05 1029.83 1029.62 1029.42
1038.93 1038.58 1038.04 1037.34 1036.49 1035.56 1034.57 1033.61 1032.72 1031.98 1031.41 1031.06 1030.92 1030.97 1031.19 1031.54 1031.95 1032.37 1032.78 1033.13 1033.42 1033.65 1033.83 1033.98 1034.10 1034.21 1034.30 1034.38 1034.42 1034.40 1034.31 1034.15 1033.90 1033.57 1033.19 1032.77 1032.34 1031.93 1031.56 1031.23 1030.93 1030.68 1030.43 1030.19
1038.08 1037.56 1036.89 1036.11 1035.24 1034.33 1033.43 1032.59 1031.86 1031.28 1030.87 1030.66 1030.63 1030.78 1031.06 1031.44 1031.88 1032.33 1032.76 1033.15 1033.49 1033.79 1034.05 1034.27 1034.48 1034.67 1034.84 1034.98 1035.07 1035.11 1035.06 1034.93 1034.71 1034.42 1034.07 1033.68 1033.27 1032.87 1032.49 1032.14 1031.82 1031.52 1031.22 1030.92
1036.80 1036.17 1035.44 1034.63 1033.80 1032.98 1032.21 1031.54 1030.98 1030.58 1030.34 1030.27 1030.35 1030.57 1030.90 1031.31 1031.76 1032.23 1032.68 1033.10 1033.50 1033.86 1034.19 1034.50 1034.79 1035.05 1035.29 1035.49 1035.64 1035.71 1035.70 1035.61 1035.44 1035.18 1034.87 1034.52 1034.14 1033.76 1033.39 1033.02 1032.67 1032.33 1031.99 1031.64
1035.24 1034.56 1033.83 1033.07 1032.33 1031.64 1031.04 1030.54 1030.17 1029.94 1029.85 1029.90 1030.07 1030.35 1030.71 1031.14 1031.60 1032.07 1032.55 1033.01 1033.46 1033.89 1034.30 1034.69 1035.06 1035.39 1035.69 1035.93 1036.11 1036.22 1036.25 1036.19 1036.05 1035.84 1035.58 1035.27 1034.94 1034.59 1034.23 1033.87 1033.50 1033.13 1032.75 1032.35
1033.57 1032.90 1032.21 1031.55 1030.94 1030.41 1029.98 1029.66 1029.46 1029.38 1029.41 1029.54 1029.77 1030.09 1030.47 1030.90 1031.36 1031.86 1032.37 1032.88 1033.39 1033.90 1034.39 1034.86 1035.29 1035.69 1036.03 1036.31 1036.51 1036.64 1036.68 1036.65 1036.55 1036.38 1036.17 1035.92 1035.64 1035.34 1035.02 1034.68 1034.31 1033.93 1033.52 1033.09
Thickness
5526 5522 5522 5524 5526 5531 5529 5526 5524 5529 5533 5530 5529 5535 5543 5545 5542 5542 5542 5543 5546 5549 5553 5554 5555 5557 5559 5561 5562 5564 5565 5566 5567 5567 5567 5567 5567 5567 5567 5567 5567 5567 5567 5566
5513 5514 5522 5521 5520 5520 5518 5513 5512 5518 5523 5521 5519 5525 5534 5536 5536 5537 5536 5537 5538 5540 5543 5545 5546 5547 5549 5551 5552 5554 5556 5557 5558 5559 5559 5559 5559 5558 5558 5558 5558 5558 5558 5559
5509 5514 5516 5514 5512 5511 5511 5507 5506 5509 5513 5514 5512 5521 5527 5530 5529 5531 5530 5530 5530 5532 5533 5535 5536 5537 5539 5541 5542 5545 5546 5547 5548 5549 5550 5549 5549 5549 5549 5549 5549 5549 5549 5550
5499 5505 5506 5506 5505 5505 5505 5506 5503 5502 5500 5495 5504 5501 5521 5521 5520 5524 5523 5520 5519 5521 5523 5525 5527 5528 5528 5530 5532 5535 5536 5538 5538 5539 5540 5541 5541 5540 5540 5540 5540 5540 5540 5541
5493 5497 5497 5499 5501 5498 5498 5499 5496 5495 5491 5486 5488 5487 5508 5512 5515 5517 5515 5512 5510 5510 5512 5515 5517 5518 5518 5519 5521 5524 5525 5527 5527 5528 5529 5529 5530 5530 5529 5529 5530 5530 5530 5531
5485 5487 5488 5492 5494 5492 5490 5486 5482 5475 5474 5471 5482 5479 5497 5501 5508 5508 5505 5503 5500 5500 5501 5503 5505 5506 5507 5508 5510 5512 5514 5515 5516 5517 5518 5518 5519 5518 5519 5519 5520 5520 5520 5521
5477 5480 5480 5481 5483 5483 5482 5474 5460 5453 5444 5459 5475 5474 5490 5499 5497 5497 5496 5493 5490 5489 5489 5490 5492 5494 5495 5497 5499 5501 5503 5503 5504 5505 5506 5507 5508 5508 5509 5509 5509 5510 5509 5510
5463 5468 5471 5469 5473 5472 5472 5471 5457 5449 5447 5454 5465 5468 5487 5488 5486 5484 5483 5481 5480 5478 5478 5479 5480 5482 5483 5485 5486 5488 5491 5492 5493 5494 5494 5495 5496 5497 5497 5497 5498 5499 5499 5500
5450 5458 5463 5462 5464 5466 5462 5459 5461 5449 5434 5437 5454 5462 5475 5479 5477 5474 5473 5471 5469 5467 5467 5468 5468 5469 5471 5472 5474 5476 5478 5480 5481 5482 5483 5484 5484 5485 5485 5486 5487 5487 5488 5489
5445 5446 5451 5450 5453 5454 5454 5451 5444 5439 5432 5434 5453 5461 5471 5477 5473 5467 5463 5460 5459 5457 5456 5456 5457 5457 5458 5460 5461 5463 5465 5467 5468 5469 5471 5472 5472 5473 5474 5474 5475 5476 5477 5478
5437 5434 5435 5435 5433 5437 5435 5435 5436 5433 5431 5432 5438 5463 5467 5468 5464 5458 5453 5450 5447 5445 5444 5444 5445 5445 5446 5447 5449 5450 5452 5453 5455 5456 5458 5459 5460 5460 5461 5462 5463 5464 5465 5466
5424 5420 5417 5422 5425 5426 5427 5426 5425 5426 5418 5421 5435 5454 5457 5452 5448 5445 5442 5440 5437 5434 5432 5432 5433 5433 5434 5434 5436 5437 5439 5440 5441 5443 5444 5446 5447 5448 5449 5450 5451 5452 5452 5453
5413 5407 5405 5413 5413 5411 5411 5414 5417 5418 5415 5410 5419 5445 5442 5437 5435 5433 5430 5428 5426 5423 5421 5421 5421 5421 5421 5422 5423 5424 5425 5427 5428 5430 5431 5432 5433 5435 5436 5437 5437 5438 5439 5440
5410 5397 5401 5411 5413 5403 5402 5406 5406 5406 5405 5405 5419 5435 5435 5428 5425 5421 5417 5414 5411 5411 5411 5411 5409 5408 5408 5409 5409 5410 5411 5413 5415 5416 5417 5418 5419 5420 5421 5423 5424 5425 5426 5427
5395 5387 5384 5391 5396 5392 5394 5398 5396 5397 5403 5407 5421 5421 5426 5420 5415 5411 5406 5402 5401 5401 5400 5399 5397 5395 5395 5396 5396 5397 5397 5399 5401 5402 5403 5404 5405 5405 5407 5409 5410 5411 5413 5414
5380 5374 5370 5374 5382 5381 5385 5394 5393 5394 5396 5397 5404 5410 5409 5404 5399 5396 5393 5391 5391 5389 5387 5386 5384 5383 5383 5383 5383 5383 5384 5385 5387 5388 5388 5389 5390 5392 5393 5395 5396 5397 5399 5399
5365 5359 5359 5362 5364 5365 5374 5394 5392 5389 5387 5389 5396 5405 5393 5389 5390 5388 5384 5381 5379 5377 5374 5372 5370 5369 5368 5368 5369 5369 5370 5371 5372 5373 5374 5375 5376 5378 5379 5381 5382 5383 5384 5384
5356 5350 5343 5340 5344 5356 5395 5390 5387 5384 5385 5380 5382 5384 5382 5383 5378 5374 5371 5367 5365 5364 5361 5358 5355 5354 5353 5353 5354 5355 5356 5357 5358 5359 5360 5360 5362 5364 5365 5366 5368 5369 5369 5370
5355 5347 5332 5326 5330 5346 5372 5373 5368 5369 5374 5373 5370 5370 5364 5359 5358 5359 5358 5355 5353 5350 5347 5343 5341 5340 5339 5339 5340 5341 5342 5342 5343 5344 5345 5346 5347 5349 5351 5352 5353 5354 5355 5356
5339 5337 5327 5316 5325 5333 5374 5364 5359 5361 5364 5364 5358 5355 5349 5347 5351 5356 5346 5341 5338 5335 5332 5329 5327 5326 5325 5325 5326 5327 5327 5327 5328 5330 5331 5332 5333 5334 5336 5337 5338 5339 5340 5341
5321 5318 5317 5312 5314 5332 5349 5345 5347 5351 5362 5352 5346 5343 5338 5338 5342 5337 5330 5325 5323 5321 5318 5316 5314 5312 5312 5311 5312 5312 5312 5313 5314 5315 5316 5317 5318 5320 5321 5322 5323 5324 5325 5326
5318 5309 5302 5299 5306 5330 5338 5333 5340 5346 5340 5336 5332 5329 5326 5323 5320 5317 5314 5311 5308 5306 5305 5303 5301 5299 5297 5296 5297 5297 5297 5299 5299 5300 5301 5303 5304 5305 5306 5307 5308 5309 5309 5310
5317 5322 5318 5317 5331 5332 5325 5329 5327 5324 5323 5322 5319 5316 5312 5309 5305 5302 5299 5297 5295 5293 5292 5290 5287 5285 5283 5282 5282 5283 5283 5283 5284 5285 5286 5288 5289 5291 5292 5292 5293 5293 5293 5295
5305 5304 5305 5305 5316 5316 5312 5310 5310 5308 5309 5309 5307 5304 5300 5297 5293 5290 5288 5286 5283 5281 5278 5275 5273 5271 5270 5269 5269 5268 5269 5269 5270 5271 5272 5273 5275 5276 5276 5276 5278 5278 5279 5280
5301 5291 5292 5297 5305 5301 5304 5301 5299 5297 5295 5293 5291 5289 5287 5284 5282 5279 5276 5274 5270 5269 5265 5262 5260 5259 5258 5256 5255 5255 5255 5255 5256 5257 5258 5259 5260 5260 5261 5261 5262 5264 5265 5265
5285 5283 5289 5302 5298 5293 5298 5292 5286 5283 5281 5279 5277 5274 5272 5271 5269 5267 5263 5260 5257 5255 5252 5250 5248 5246 5244 5243 5243 5242 5242 5243 5243 5244 5245 5246 5246 5245 5246 5246 5247 5249 5251 5253